This demonstration page uses our WeatherBlox Daily Observations layout. Learn more.

Left ArrowRight Arrow

Hourly Observations for June 19, 2018

Temp ( °F °C ) Dew Point ( °F °C ) Humidity (%) Winds ( mph kmh ) Pressure ( in mb ) Visibility ( mi km ) Precip ( " mm )
12:53 am 00:53 Clear 72 22.2 66 18.9 82 82 SW 7 11 29.89 1012 10 16 0.00 0.00
1:53 am 01:53 Clear 72 22.2 66 18.9 82 82 W 6 9 29.87 1012 10 16 0.00 0.00
2:53 am 02:53 Clear 70 21.1 67 19.4 90 90 WNW 3 6 29.86 1011 10 16 0.00 0.00
3:53 am 03:53 Clear 70 21.1 69 20.6 97 97 ENE 5 7 29.88 1012 7 11 0.00 0.00
4:24 am 04:24 Partly Cloudy 70 21.1 68 20 93 93 NNE 5 7 29.91 1013 7 11 0.00 0.00
4:32 am 04:32 Mostly Cloudy 70 21 70 21 100 100 N 6 9 29.91 1013 7 11 0.00 0.00
4:45 am 04:45 Cloudy 71 21.7 69 20.6 94 94 N 6 9 29.91 1013 7 11 0.00 0.00
4:53 am 04:53 Cloudy with Mist and Fog 71 21.7 69 20.6 94 94 NNE 6 9 29.91 1013 6 10 0.00 0.00
5:53 am 05:53 Cloudy with Light Rain 72 22.2 70 21.1 94 94 NNW 15 24 29.93 1013 6 10 0.00 0.03
6:10 am 06:10 Cloudy 70 21 68 20 94 94 NNW 16 26 29.91 1013 10 16 0.00 0.00
6:25 am 06:25 Cloudy 69 20.6 68 20 96 96 NNW 14 22 29.91 1013 10 16 0.00 0.03
6:53 am 06:53 Mostly Cloudy 69 20.6 67 19.4 93 93 N 12 19 29.92 1013 10 16 0.00 0.03
7:09 am 07:09 Mostly Sunny 69 20.6 67 19.4 93 93 ENE 8 13 29.94 1014 10 16 0.00 0.00
7:53 am 07:53 Sunny 71 21.7 68 20 90 90 NE 6 9 29.92 1013 10 16 0.00 0.00
8:53 am 08:53 Mostly Cloudy 73 22.8 67 19.4 81 81 N 7 11 29.93 1014 10 16 0.00 0.00
9:53 am 09:53 Mostly Cloudy 75 23.9 67 19.4 76 76 N 8 13 29.95 1014 10 16 0.00 0.00
10:53 am 10:53 Cloudy 74 23.3 68 20 82 82 N 13 20 29.93 1014 10 16 0.00 0.00
11:53 am 11:53 Cloudy 74 23.3 68 20 82 82 NNE 12 19 29.93 1013 10 16 0.00 0.00
12:53 pm 12:53 Cloudy 78 25.6 70 21.1 76 76 ENE 8 13 29.91 1013 10 16 0.00 0.00
1:53 pm 13:53 Cloudy 79 26.1 70 21.1 74 74 NE 7 11 29.90 1013 10 16 0.00 0.00
2:53 pm 14:53 Cloudy 80 26.7 70 21.1 71 71 NNE 6 9 29.88 1012 10 16 0.00 0.00
3:37 pm 15:37 Cloudy 81 27 72 22 74 74 NNE 7 11 29.83 1010 10 16 0.00 0.00
3:53 pm 15:53 Cloudy 81 27.2 70 21.1 69 69 NNE 6 9 29.88 1012 10 16 0.00 0.00
4:01 pm 16:01 Cloudy 81 27.2 71 21.7 72 72 NNE 7 11 29.83 1010 10 16 0.00 0.00
4:22 pm 16:22 Cloudy 81 27 72 22 74 74 NE 8 13 29.80 1009 10 16 0.00 0.00
4:53 pm 16:53 Mostly Cloudy 83 28.3 71 21.7 67 67 N 13 20 29.83 1010 10 16 0.00 0.00
5:53 pm 17:53 Mostly Sunny 79 26.1 70 21.1 74 74 NE 12 19 29.82 1010 10 16 0.00 0.00
6:46 pm 18:46 Partly Cloudy with Thunderstorms 77 25 70 21 79 79 NNE 14 22 29.80 1009 10 16 0.00 0.00
6:53 pm 18:53 Partly Cloudy with Thunderstorms 77 25 69 20.6 77 77 N 20 31 29.84 1011 10 16 0.00 0.00
7:03 pm 19:03 Mostly Cloudy with Nearby Thunderstorms 76 24.4 69 20.6 79 79 NNE 20 31 29.80 1009 10 16 0.00 0.00
7:10 pm 19:10 Mostly Cloudy with Nearby Thunderstorms 76 24.4 69 20.6 79 79 NNE 20 31 29.80 1009 10 16 0.00 0.00
7:42 pm 19:42 Mostly Cloudy with Thunderstorms 75 24 70 21 83 83 ENE 15 24 29.83 1010 10 16 0.00 0.00
7:53 pm 19:53 Mostly Cloudy with Thunderstorms 74 23.3 70 21.1 88 88 ENE 16 26 29.88 1012 10 16 0.00 0.03
8:09 pm 20:09 Windy with Storms Likely 70 21.1 68 20 93 93 SE 22 35 29.88 1012 8 13 0.01 0.25
8:36 pm 20:36 Cloudy with Light Rain 68 20 66 19 94 94 ESE 18 30 29.83 1010 10 16 0.00 0.00
8:53 pm 20:53 Cloudy with Light Rain 68 20 65 18.3 90 90 E 14 22 29.88 1012 8 13 0.06 1.52
9:53 pm 21:53 Cloudy with Light Rain 67 19.4 62 16.7 84 84 ESE 18 30 29.91 1013 8 13 0.19 4.83
10:53 pm 22:53 Cloudy with Light Rain 66 18.9 63 17.2 90 90 E 18 30 29.90 1012 10 16 0.11 2.79
11:53 pm 23:53 Cloudy with Light Rain 65 18.3 62 16.7 90 90 ENE 12 19 29.89 1012 10 16 0.01 0.25

Powered by AerisWeather